Regional Weather Roundup
Issued by NWS Albany, NY

Home | Current Version | Previous Version | Text Only | Print | Product List | Glossary On
Versions: 1 2 3 4 5 6 7 8 9 10 11 12 13 14 15 16 17 18 19 20 21 22 23 24 25 26 27 28 29 30 31 32 33 34 35 36 37 38 39 40 41 42 43 44 45 46 47 48 49 50
000
ASUS41 KALY 041910
RWRALY

NEW YORK STATE HOURLY WEATHER ROUNDUP
NATIONAL WEATHER SERVICE ALBANY NY
300 PM EDT SAT JUL 04 2015

NOTE: "FAIR" INDICATES FEW OR NO CLOUDS BELOW 12,000 FEET WITH NO
SIGNIFICANT WEATHER AND/OR NO OBSTRUCTIONS TO VISIBILITY.

NYZ032-033-038>043-046>054-057>066-NYZ062>081-042000-
EAST


CITY           SKY/WX    TMP DP  RH WIND       PRES   REMARKS
ALBANY         CLOUDY    67  62  84 S6        29.98F
GLENS FALLS    CLOUDY    63  60  90 S5        29.98S
POUGHKEEPSIE   CLOUDY    67  61  81 NW3       29.97F
NEWBURGH       PTSUNNY   66  63  88 VRB5      30.00S
MONTGOMERY     CLOUDY    68  63  84 CALM      29.97F
WHITE PLAINS   LGT RAIN  71  61  70 E5        29.95F
ISLIP          LGT RAIN  73  62  68 NE8       29.93F
NEW YORK CITY  LGT RAIN  71  61  70 NE7       29.95F
CENTRAL PARK   CLOUDY    72  61  68 CALM      29.98F
$$

NYZ005>009-017-018-044>046-055-056-042000-
CENTRAL


CITY           SKY/WX    TMP DP  RH WIND       PRES   REMARKS
FULTON         PTSUNNY   78  63  59 S10       29.92S
SYRACUSE       PTSUNNY   76  61  59 SW7       29.92S
ROME           CLOUDY    74  61  63 SE6       29.95F
ELMIRA         CLOUDY    70  63  78 SE6       29.95S
BINGHAMTON     CLOUDY    63  59  87 S9        29.99S
MONTICELLO     CLOUDY    63  59  88 CALM      30.02S
$$

NYZ026>034-041>043-042000-
NORTH


CITY           SKY/WX    TMP DP  RH WIND       PRES   REMARKS
WATERTOWN      MOSUNNY   74  62  66 W10       29.92F
FORT DRUM      NOT AVBL
MASSENA        MOSUNNY   76  55  48 NW5       29.92S
SARANAC LAKE   PTSUNNY   67  62  84 S7        29.95S
PLATTSBURGH    CLOUDY    73  60  63 S14       29.91F
$$

NYZ001>004-010>016-019>021-042000-
WEST


CITY           SKY/WX    TMP DP  RH WIND       PRES   REMARKS
NIAGARA FALLS  MOSUNNY   74  52  46 NW7       29.96R
BUFFALO        MOSUNNY   76  53  44 N7        29.95S
DUNKIRK        SUNNY     72  55  55 NW7       29.97S
JAMESTOWN      SUNNY     72  54  53 N12       29.99S
WELLSVILLE     MOSUNNY   75  56  51 CALM      29.98S
ROCHESTER      MOSUNNY   76  60  57 N9        29.94R
PENN YAN       MOSUNNY   75  62  64 VRB6      29.94S
$$

             KEY
       WCI = WIND CHILL INDEX
       VSB = VISIBILITY
       HX  = HEAT INDEX
$$



USA.gov is the U.S. government's official web portal to all federal, state and local government web resources and services.